Regional Weather Roundup
Issued by NWS State College, PA

Home | Current Version | Previous Version | Graphics & Text | Print | Product List | Glossary On
Versions: 1 2 3 4 5 6 7 8 9 10 11 12 13 14 15 16 17 18 19 20 21 22 23 24 25 26 27 28 29 30 31 32 33 34 35 36 37 38 39 40 41 42 43 44 45 46 47 48 49 50
000
ASUS41 KCTP 240303
RWRCTP

REGIONAL WEATHER ROUNDUP
NATIONAL WEATHER SERVICE STATE COLLEGE PA
1100 PM EDT MON MAY 23 2016

Note: "fair" indicates few or no clouds below 12,000 feet with no
significant weather and/or obstructions to visibility.

* = STATION THAT DOES NOT REPORT PRECIPITATION /E.G. RAIN...SNOW...ETC/
    THUNDER OR FOG.

PAZ002>004-007>009-013>016-020>023-029>032-240400-
WESTERN PENNSYLVANIA

CITY           SKY/WX    TMP DP  RH WIND       PRES   REMARKS
ERIE           CLEAR     56  46  69 S6        30.02R
MEADVILLE      CLEAR     57  42  57 NW3       30.04R
FRANKLIN*      CLEAR     59  43  55 NW5       30.06R
NEW CASTLE     FAIR      57  47  69 CALM      30.04R
BEAVER COUNTY  NOT AVBL
BUTLER*        CLEAR    N/A N/A N/A N3        30.05R
PITTSBURGH INT PTCLDY    62  51  67 CALM      30.02R
PITTSBURGH     CLEAR     61  50  67 W9        30.02R
INDIANA*       MOCLDY    59  54  82 W5        30.04R
LATROBE        PTCLDY    59  52  77 CALM      30.03R
WASHINGTON CO* CLEAR     50  46  87 CALM      30.04R
$$

PAZ004>006-010>012-017>019-024>028-033>037-041-042-045-046-049>053-240400-
CENTRAL PENNSYLVANIA

CITY           SKY/WX    TMP DP  RH WIND       PRES   REMARKS
BRADFORD       CLEAR     56  42  59 CALM      30.03R
DUBOIS         CLEAR     61  44  53 N7        30.00R
CLEARFIELD     CLEAR     56  48  74 CALM      30.00R
JOHNSTOWN      MOCLDY    58  45  62 SW7       30.02R
ALTOONA        MOCLDY    59  51  75 W3        30.00R
STATE COLLEGE  CLEAR     60  52  73 SW5       29.97S
WILLIAMSPORT   CLEAR     59  48  67 CALM      29.92S
SELINSGROVE    CLOUDY    57  54  89 CALM      29.94R
FT INDIANTOWN  LGT RAIN  56  56 100 N2        29.94S
CAPITAL CITY   LGT RAIN  59  55  87 NW6       29.94S
HARRISBURG     LGT RAIN  59  56  89 CALM      29.94R
YORK           CLOUDY    59  53  80 E3        29.95R
$$

PAZ038>040-043-044-047-048-054-055-060>062-067>071-240400-
EASTERN PENNSYLVANIA

CITY           SKY/WX    TMP DP  RH WIND       PRES   REMARKS
SCRANTON       PTCLDY    57  51  80 CALM      29.91R
MOUNT POCONO   CLEAR     49  48  97 NW6       29.93S
ALLENTOWN      CLOUDY    61  53  75 SW7       29.90S
QUAKERTOWN*    CLOUDY    59  55  88 CALM      29.92F
READING        MOCLDY    61  54  77 W7        29.91S
LANCASTER      MOCLDY    59  54  83 NW7       29.94R
COATESVILLE      N/A    N/A N/A N/A MISG        N/A
POTTSTOWN      CLOUDY    59  56  89 S5        29.93R
BLUE BELL      CLOUDY    55  54  94 CALM      29.92S
DOYLESTOWN     CLOUDY    57  55  93 S6        29.92R
WILLOW GROVE   NOT AVBL
NORTH PHILA    CLOUDY    62  56  80 SW5       29.95R
PHILADELPHIA   CLOUDY    61  55  81 S6        29.94R
$$




USA.gov is the U.S. government's official web portal to all federal, state and local government web resources and services.